GW7192 Weather Reports


time (UTC)temp
C
wind
direction
speed
KPH
gust
KPH
rain 1hr
cm
rain 24hr
cm
rain mn
cm
humidity
%
barometer
mb
20260504081016 10 276 0.0 3.2 0.00 0.00 0.00 73 1002.8
20260504050015 14 240 6.4 17.7 0.00 0.00 0.00 63 1004.6
20260504045016 13 253 4.8 16.1 0.00 0.00 0.00 63 1004.6
20260504044015 13 248 3.2 12.9 0.00 0.00 0.00 64 1004.6
20260504043015 13 231 3.2 11.3 0.00 0.00 0.00 64 1004.6
20260504042016 13 252 1.6 9.7 0.00 0.00 0.00 64 1004.6
20260504041036 14 244 1.6 8.0 0.00 0.00 0.00 63 1004.6
20260504040016 14 235 3.2 8.0 0.00 0.00 0.00 63 1004.7
20260504035036 14 214 3.2 9.7 0.00 0.00 0.00 62 1004.7
20260504034016 15 219 3.2 11.3 0.00 0.00 0.00 62 1004.7
20260504033017 15 210 3.2 8.0 0.00 0.00 0.00 61 1004.8
20260504032015 15 217 3.2 11.3 0.00 0.00 0.00 61 1004.9
20260504031015 15 206 3.2 8.0 0.00 0.00 0.00 60 1005.0
20260504030015 15 224 4.8 12.9 0.00 0.00 0.00 59 1005.1
20260504025015 15 175 3.2 8.0 0.00 0.00 0.00 59 1005.1
20260504024036 15 183 1.6 6.4 0.00 0.00 0.00 58 1005.1
20260504023036 16 206 1.6 8.0 0.00 0.00 0.00 57 1005.0
20260504022015 16 222 4.8 11.3 0.00 0.00 0.00 57 1004.9
20260504021036 16 226 1.6 6.4 0.00 0.00 0.00 56 1004.8
20260504020016 16 220 1.6 6.4 0.00 0.00 0.00 55 1004.8
20260504015015 16 239 1.6 8.0 0.00 0.00 0.00 55 1004.8
20260504014016 16 239 1.6 6.4 0.00 0.00 0.00 54 1004.6
20260504013016 17 233 3.2 9.7 0.00 0.00 0.00 53 1004.6
20260504012016 17 227 1.6 6.4 0.00 0.00 0.00 52 1004.4
20260504011016 17 221 1.6 6.4 0.00 0.00 0.00 50 1004.3
20260504010015 18 226 3.2 11.3 0.00 0.00 0.00 49 1004.2
20260504005015 18 229 3.2 12.9 0.00 0.00 0.00 47 1004.3
20260504004015 19 243 3.2 9.7 0.00 0.00 0.00 46 1004.4
20260504003015 20 252 3.2 11.3 0.00 0.00 0.00 44 1004.4
20260504002015 20 250 3.2 9.7 0.00 0.00 0.00 44 1004.3
20260504001015 20 283 6.4 20.9 0.00 0.00 0.00 43 1004.4
20260504000037 20 289 6.4 22.5 0.00 0.00 0.00 43 1004.4
20260503235019 20 281 8.0 30.6 0.00 0.00 0.00 42 1004.3
20260503234016 20 271 6.4 16.1 0.00 0.00 0.00 42 1004.3
20260503233015 20 258 11.3 25.7 0.00 0.00 0.00 42 1004.4
20260503232015 21 260 11.3 27.4 0.00 0.00 0.00 42 1004.5
20260503231015 21 268 8.0 22.5 0.00 0.00 0.00 41 1004.5
20260503230035 20 269 6.4 16.1 0.00 0.00 0.00 42 1004.5
20260503225016 20 275 14.5 25.7 0.00 0.00 0.00 42 1004.6
20260503224015 20 228 11.3 27.4 0.00 0.00 0.00 41 1004.6
20260503223015 20 239 6.4 20.9 0.00 0.00 0.00 42 1004.6
20260503222015 20 211 6.4 24.1 0.00 0.00 0.00 42 1004.7
20260503221015 20 199 12.9 24.1 0.00 0.00 0.00 41 1004.8
20260503220015 20 209 11.3 25.7 0.00 0.00 0.00 41 1005.0
20260503215015 20 237 9.7 30.6 0.00 0.00 0.00 42 1005.0
20260503214015 20 221 11.3 29.0 0.00 0.00 0.00 42 1005.2
20260503213016 20 241 12.9 29.0 0.00 0.00 0.00 41 1005.3
20260503212035 19 233 12.9 32.2 0.00 0.00 0.00 41 1005.5
20260503211035 19 262 11.3 25.7 0.00 0.00 0.00 42 1005.6
20260503210015 18 245 16.1 40.2 0.00 0.00 0.00 41 1005.7
20260503205015 18 225 8.0 30.6 0.00 0.00 0.00 43 1005.9
20260503204015 18 207 14.5 37.0 0.00 0.00 0.00 42 1006.2
20260503203016 17 229 12.9 30.6 0.00 0.00 0.00 43 1006.4
20260503202018 17 207 14.5 33.8 0.00 0.00 0.00 43 1006.8
20260503201016 18 204 12.9 32.2 0.00 0.00 0.00 45 1006.9
20260503200038 17 215 14.5 40.2 0.00 0.00 0.00 47 1007.0
20260503195056 17 216 14.5 43.5 0.00 0.00 0.00 49 1007.3
20260503194038 16 204 17.7 37.0 0.00 0.00 0.00 50 1007.5
20260503193018 16 204 11.3 32.2 0.00 0.00 0.00 51 1007.7
20260503192016 16 172 14.5 32.2 0.00 0.00 0.00 52 1007.7
20260503191017 16 172 14.5 33.8 0.00 0.00 0.00 52 1007.8
20260503190018 15 176 14.5 33.8 0.00 0.00 0.00 51 1007.7
20260503185017 16 169 16.1 32.2 0.00 0.00 0.00 50 1008.0
20260503184018 15 187 12.9 41.8 0.00 0.00 0.00 50 1008.2
20260503183017 15 187 12.9 35.4 0.00 0.00 0.00 53 1008.4
20260503182017 14 170 16.1 46.7 0.00 0.00 0.00 54 1008.7
20260503181017 13 190 14.5 37.0 0.00 0.00 0.00 56 1008.8
20260503180017 13 156 16.1 32.2 0.00 0.00 0.00 57 1009.0
20260503175038 13 167 14.5 29.0 0.00 0.00 0.00 58 1009.4
20260503174037 13 185 12.9 48.3 0.00 0.00 0.00 58 1009.7
20260503173017 13 189 14.5 33.8 0.00 0.00 0.00 58 1010.0
20260503172016 13 199 12.9 29.0 0.00 0.00 0.00 59 1010.3
20260503171018 12 196 11.3 27.4 0.00 0.00 0.00 62 1010.6
20260503131017 9 238 8.0 19.3 0.00 0.03 0.00 61 1012.8